Flag for Libya Weather past 2 weeks in Tripoli, Libya

Now
86 °F

Passing clouds.


Feels Like: 97 °F
Forecast: 85 / 95 °F
Wind: 12 mph from Northeast

Location: Djerba Mellita

Current Time: Aug 22, 2014 at 3:48:53 PM

Latest Report: Aug 22, 2014 at 3:30 PM


Visibility: 5 mi

Pressure: 29.92 "Hg

Humidity: 75%

Dew point: 77 °F

Location of TripoliLocation

Historic Weather in Tripoli — Graph

°F

Tripoli temperature yesterday

Maximum temperature yesterday: 90 °F (at 2:30 PM)
Minimum temperature yesterday: 82 °F (at 7:30 AM)
Average temperature yesterday: 86 °F

Past Weeks' High & Low Weather Summary

 TemperatureHumidityPressure
High108 °F (Aug 13, 4:30 PM)94% (Aug 11, 7:00 AM)30.07 "Hg (Aug 11, 7:00 AM)
Low72 °F (Aug 9, 5:30 AM)15% (Aug 13, 5:00 PM)29.74 "Hg (Aug 13, 6:00 PM)
Average84 °F65%29.91 "Hg
* Reported Aug 7 2:00 PM — Aug 22 2:30 PM, Tripoli, Weather by CustomWeather, © 2014

Note: Actual official high and low records may vary slightly from our data, if they occured in-between our weather recording intervals... More about our weather records

Advertising

Tripoli weather history for previous 24 hours

 ConditionsComfort  
Time TempWeatherWind HumidityBarometerVisibility
2:30 PM
Aug 22
88 °FPassing clouds.14 mph70%29.92 "Hg5 mi
2:00 PM88 °FPassing clouds.14 mph70%29.92 "Hg5 mi
1:00 PM88 °FPassing clouds.13 mph66%29.95 "Hg5 mi
12:30 PM86 °FScattered clouds.13 mph70%29.95 "Hg5 mi
12:00 PM90 °FScattered clouds.13 mph67%29.95 "Hg5 mi
11:30 AM88 °FScattered clouds.14 mph66%29.95 "Hg5 mi
11:00 AM86 °FScattered clouds.13 mph70%29.95 "Hg5 mi
10:30 AM88 °FScattered clouds.13 mph66%29.95 "Hg5 mi
10:00 AM86 °FScattered clouds.13 mph70%29.95 "Hg4 mi
9:30 AM84 °FScattered clouds.14 mph74%29.95 "Hg4 mi
9:00 AM84 °FScattered clouds.13 mph74%29.92 "Hg4 mi
8:30 AM82 °FScattered clouds.14 mph79%29.92 "Hg4 mi
8:00 AM82 °FScattered clouds.16 mph84%29.92 "Hg4 mi
7:30 AM82 °FScattered clouds.15 mph79%29.89 "Hg4 mi
7:00 AM82 °FScattered clouds.16 mph79%29.89 "Hg4 mi
6:30 AM82 °FPassing clouds.17 mph84%29.89 "Hg4 mi
6:00 AM82 °FPassing clouds.17 mph84%29.86 "Hg4 mi
5:30 AM82 °FPassing clouds.17 mph79%29.86 "Hg5 mi
5:00 AM82 °FPassing clouds.18 mph84%29.86 "Hg5 mi
4:30 AM82 °FPassing clouds.18 mph84%29.86 "Hg5 mi
4:00 AM82 °FPassing clouds.18 mph84%29.86 "Hg5 mi
3:30 AM82 °FClear.21 mph84%29.86 "Hg5 mi
3:00 AM82 °FClear.20 mph84%29.86 "Hg5 mi
2:30 AM82 °FClear.18 mph84%29.86 "Hg5 mi
2:00 AM82 °FClear.20 mph84%29.86 "Hg5 mi
1:30 AM82 °FClear.20 mph84%29.86 "Hg5 mi
1:00 AM82 °FPassing clouds.18 mph84%29.89 "Hg5 mi
12:30 AM82 °FPassing clouds.16 mph84%29.89 "Hg5 mi
12:00 AM82 °FPassing clouds.14 mph84%29.89 "Hg5 mi
11:30 PM
Aug 21
82 °FPassing clouds.15 mph84%29.89 "Hg5 mi
10:30 PM82 °FPassing clouds.14 mph84%29.89 "Hg5 mi
10:00 PM84 °FPassing clouds.13 mph79%29.89 "Hg5 mi
9:30 PM84 °FPassing clouds.13 mph79%29.86 "Hg5 mi
9:00 PM84 °FPassing clouds.12 mph79%29.86 "Hg5 mi
8:30 PM82 °FPassing clouds.14 mph84%29.83 "Hg5 mi
8:00 PM84 °FPassing clouds.14 mph79%29.83 "Hg5 mi
7:30 PM84 °FPassing clouds.13 mph79%29.83 "Hg5 mi
7:00 PM84 °FPassing clouds.14 mph79%29.83 "Hg5 mi
6:30 PM86 °FPassing clouds.13 mph75%29.83 "Hg5 mi
6:00 PM86 °FPassing clouds.16 mph70%29.83 "Hg5 mi
5:30 PM86 °FPassing clouds.15 mph75%29.83 "Hg5 mi
4:30 PM88 °FClear.15 mph66%29.86 "Hg5 mi
4:00 PM88 °FClear.14 mph66%29.86 "Hg5 mi
3:30 PM88 °FClear.13 mph66%29.86 "Hg5 mi
3:00 PM90 °FClear.13 mph63%29.89 "Hg5 mi
Weather by CustomWeather, © 2014

See weather overviewHow to use our weather pages